Location: Cruquius
(52.3348°N, 4.6319°E)
Time: 09:12:58
(UTC+00:00)

ALOS 2 - Pass Details

Date: 12 May 2021
Orbit: 630 x 632 km, 97.9° (Epoch: 15 June)

Event Time Altitude Azimuth Distance (km) Brightness Sun altitude
Exits shadow 23:01:46 43° 171° (S) 899 2.9 -18.9°
Maximum altitude 23:03:13 84° 256° (WSW) 643 2.5 -18.9°
Drops below altitude 10° 23:07:39 10° 345° (NNW) 2,027 6.4 -19.0°
Sets 23:09:52 0° 346° (NNW) 2,940 7.7 -19.0°
